Regional Weather Roundup
Issued by NWS

Home | Current Version | Previous Version | Graphics & Text | Print | Product List | Glossary On
Versions: 1 2 3 4 5 6 7 8 9 10 11 12 13 14 15 16 17 18 19 20 21 22 23 24 25 26 27 28 29 30 31 32 33 34 35 36 37 38 39 40 41 42 43 44 45 46 47 48 49 50
000
ASUS43 KDTX 241910
RWRMI
MICHIGAN HOURLY REGIONAL WEATHER ROUNDUP
NATIONAL WEATHER SERVICE DETROIT/PONTIAC MI
200 PM EST FRI NOV 24 2017

NOTE: "FAIR" INDICATES FEW OR NO CLOUDS BELOW 12,000 FEET WITH NO
SIGNIFICANT WEATHER AND/OR OBSTRUCTION TO VISIBILITY.

MIZ047>049-052>055-059>063-066>070-074>076-081>083-242000-
SOUTHEAST LOWER MICHIGAN

CITY           SKY/WX    TMP DP  RH WIND       PRES   REMARKS
ADRIAN         SUNNY     50  31  48 SW17G28   29.72F
ALMA           SUNNY     55  33  44 SW18G26   29.58F
ANN ARBOR      SUNNY     51  31  46 S14G23    29.69F
BAD AXE        MOSUNNY   51  32  48 S17       29.58F
CARO           SUNNY     56  32  41 S14G25    29.59F
DETROIT CITY   SUNNY     50  30  46 SW14      29.70F
DETROIT        MOSUNNY   54  31  41 SW21      29.72F
FLINT          SUNNY     56  31  38 SW20G25   29.62F
GROSSE ILE     SUNNY     48  34  58 S15       29.71F
HILLSDALE      SUNNY     52  30  43 S14G23    29.68F
HOWELL         SUNNY     54  31  41 S16       29.64F

CITY           SKY/WX    TMP DP  RH WIND       PRES   REMARKS
JACKSON        SUNNY     54  31  41 S13G22    29.66F
LAMBERTVILLE   SUNNY     56  30  38 SW10G20   29.72F
LANSING        SUNNY     56  33  42 S20G26    29.61F
LAPEER         FAIR      54  31  40 SW14G24   29.63F
MASON          SUNNY     56  32  41 S8        29.63F
MONROE         SUNNY     54  29  39 S10G25    29.72F
MT. CLEMENS    MOSUNNY   51  32  48 S12G20    29.68F
PONTIAC        MOSUNNY   51  30  44 SW14G21   29.65F
PORT HOPE        N/A     51  31  46 SW12G24   29.53F
PORT HURON     SUNNY     46  28  49 S18G26    29.68F
TRI CITIES     SUNNY     57  35  43 SW16      29.57F
MIDLAND        FAIR      54  35  47 SW15G22   29.54F
TROY           SUNNY     54  29  38 SW17G26   29.69F
SAGINAW HB     SUNNY     54  32  43 S23G29    29.56F
$$
MIZ043>046-050>051-056>058-064>065-071>073-077>080-242000-
SOUTHWEST LOWER MICHIGAN

CITY           SKY/WX    TMP DP  RH WIND       PRES   REMARKS
BATTLE CREEK   SUNNY     54  34  46 S18G24    29.64F
BENTON HARBOR  SUNNY     57  32  38 S13G21    29.60F
BIG RAPIDS     SUNNY     56  32  40 SW15G35   29.51F
COLDWATER      SUNNY     54  30  40 SW14G23   29.67F
FREMONT        FAIR      56  35  44 SW22G30   29.52F
HOLLAND        SUNNY     59  35  40 S17G24    29.57F
GRAND RAPIDS   PTSUNNY   58  35  42 S20       29.57F
IONIA          FAIR      56  32  40 S16G23    29.59F
KALAMAZOO      SUNNY     54  31  41 S16       29.64F
LUDINGTON      SUNNY     54  37  52 S20G30    29.45F
MARSHALL       SUNNY     54  31  41 S13G21    29.65F
MOUNT PLEASANT MOSUNNY   55  32  41 S15       29.53F
MUSKEGON       MOSUNNY   53  36  52 S21G30    29.54F
SOUTH HAVEN    SUNNY     58  32  36 S14G22    29.59F
$$
MIZ016>042-242000-
NORTHERN LOWER MICHIGAN

CITY           SKY/WX    TMP DP  RH WIND       PRES   REMARKS
ALPENA         PTSUNNY   55  37  50 SW14G22   29.41F
BEAVER ISLAND  CLOUDY    52  39  61 SW20G32   29.31F
BELLAIRE       MOSUNNY   61  40  47 S14G25    29.37F
CADILLAC       SUNNY     55  37  49 S18       29.45F
CHARLEVOIX     MOSUNNY   60  38  42 S20G30    29.35F
FRANKFORT      SUNNY     57  38  48 S21G29    29.38F
GAYLORD        CLOUDY    57  36  45 SW21G26   29.39F
GRAYLING       SUNNY     56  35  44 S9G18     29.44F
HARBOR SPRINGS CLOUDY    56  37  49 SW10G20   29.33F
HOUGHTON LAKE  SUNNY     52  34  50 S12       29.48F
MANISTEE       CLOUDY    58  38  47 S10G23    29.41F
OSCODA         MOSUNNY   49  30  46 SW18G30   29.49F
ROGERS CITY    PTSUNNY   56  37  47 SW21G31   29.35F
TRAVERSE CITY  MOSUNNY   63  37  38 S17G28    29.35F
$$
MIZ007>008-015-242000-
EASTERN UPPER MICHIGAN

CITY           SKY/WX    TMP DP  RH WIND       PRES   REMARKS
KINROSS        LGT RAIN  52  39  61 SW16G23   29.30F
MACKINAC ISLAN CLOUDY    56  36  45 SW13G24   29.30F
NEWBERRY       CLOUDY    46  42  87 S23G31    29.25F
S. S. MARIE    CLOUDY    48  41  76 S7        29.29F
MUNISING         N/A     48  37  65 S10G20    29.24R
$$
MIZ004>006-011>014-085-242000-
CENTRAL UPPER MICHIGAN

CITY           SKY/WX    TMP DP  RH WIND       PRES   REMARKS
MANISTIQUE     CLOUDY    45  39  81 SW12G22   29.28F
ESCANABA       CLOUDY    47  38  71 S17G23    29.26F
MENOMINEE      CLOUDY    55  37  50 SW14G20   29.28F
SAWYER-GWINN   MOSUNNY   48  36  61 S9        29.24R
$$
MIZ001>003-009>011-084-242000-
WESTERN UPPER MICHIGAN

CITY           SKY/WX    TMP DP  RH WIND       PRES   REMARKS
IRON MOUNTAIN  MOSUNNY   57  36  45 W10G17    29.24S
HOUGHTON       CLOUDY    45  36  70 W18       29.20F
COPPER HARBOR    N/A     48  40  73 VRB5      29.19F
IRONWOOD       LGT RAIN  46  39  76 SW7       29.27S
$$

ABBREVIATIONS USED IN REMARKS
   TC - TEMPERATURE IN CELSIUS
  WCI - WIND CHILL INDEX
   HX - HEAT INDEX
  VSB - VISIBILITY





USA.gov is the U.S. government's official web portal to all federal, state and local government web resources and services.